Location: Bh?mavarapp?du
(16.7041°N, 80.6518°E)
Time: 07:08:54
(UTC+00:00)

ATLAS 2AS CENTAUR R/B - Pass Details

Date: 21 April 2021
Orbit: 949 x 1263 km, 63.7° (Epoch: 02 May)

Event Time Altitude Azimuth Distance (km) Brightness Sun altitude
Rises 23:42:15 0° 324° (NW) 3,893 5.4 -9.0°
Reaches altitude 10° 23:45:08 10° 318° (NW) 2,887 4.7 -8.4°
Maximum altitude 23:51:24 41° 250° (WSW) 1,417 2.9 -6.9°
Drops below altitude 10° 23:57:18 10° 181° (S) 2,712 4.7 -5.5°
Sets 23:59:57 0° 174° (S) 3,634 5.4 -4.9°
